Meteo pe oră la Dziadkowko

Astăzi, 1 Octombrie, Joi

Timp Temperatura Precipitaţii Vânt Presiune Umiditate
00:00 +12°C° 0.2 mm 3 m/s 748 mmHg 88%
01:00 +12°C° 0 mm 3 m/s 748 mmHg 94%
02:00 +12°C° 0.1 mm 3 m/s 747 mmHg 94%
03:00 +13°C° 0.1 mm 3 m/s 747 mmHg 93%
04:00 +13°C° 0.1 mm 3 m/s 746 mmHg 92%
05:00 +13°C° 0 mm 3 m/s 746 mmHg 91%
06:00 +12°C° 0 mm 3 m/s 746 mmHg 90%
07:00 +12°C° 0 mm 3 m/s 746 mmHg 89%
08:00 +13°C° 0 mm 3 m/s 746 mmHg 83%
09:00 +14°C° 0 mm 3 m/s 745 mmHg 76%
10:00 +16°C° 0 mm 3 m/s 745 mmHg 70%
11:00 +16°C° 0 mm 3 m/s 745 mmHg 72%
12:00 +14°C° 0 mm 3 m/s 744 mmHg 73%
13:00 +14°C° 0 mm 3 m/s 744 mmHg 75%
14:00 +14°C° 0 mm 3 m/s 744 mmHg 75%
15:00 +14°C° 0 mm 3 m/s 744 mmHg 76%
16:00 +14°C° 0 mm 3 m/s 744 mmHg 77%
17:00 +13°C° 0 mm 3 m/s 744 mmHg 78%
18:00 +14°C° 0 mm 2 m/s 744 mmHg 79%
19:00 +14°C° 0 mm 2 m/s 744 mmHg 81%
20:00 +14°C° 0 mm 2 m/s 744 mmHg 81%
21:00 +13°C° 0 mm 2 m/s 743 mmHg 82%
22:00 +13°C° 0 mm 2 m/s 743 mmHg 82%
23:00 +13°C° 0 mm 2 m/s 743 mmHg 85%

Mâine, 2 Octombrie, Vineri

Timp Temperatura Precipitaţii Vânt Presiune Umiditate
00:00 +12°C° 0 mm 2 m/s 743 mmHg 87%
01:00 +11°C° 0 mm 3 m/s 743 mmHg 89%
02:00 +11°C° 0 mm 3 m/s 743 mmHg 90%
03:00 +11°C° 0 mm 3 m/s 743 mmHg 92%
04:00 +11°C° 0 mm 3 m/s 743 mmHg 93%
05:00 +11°C° 0 mm 3 m/s 743 mmHg 92%
06:00 +11°C° 0 mm 4 m/s 743 mmHg 92%
07:00 +12°C° 0 mm 4 m/s 743 mmHg 91%
08:00 +12°C° 0 mm 4 m/s 743 mmHg 88%
09:00 +13°C° 0 mm 4 m/s 743 mmHg 84%
10:00 +14°C° 0 mm 4 m/s 743 mmHg 81%
11:00 +14°C° 0.1 mm 4 m/s 743 mmHg 78%
12:00 +15°C° 0.1 mm 4 m/s 743 mmHg 75%
13:00 +15°C° 0.1 mm 4 m/s 743 mmHg 72%
14:00 +15°C° 0 mm 4 m/s 743 mmHg 73%
15:00 +15°C° 0 mm 4 m/s 743 mmHg 73%
16:00 +15°C° 0 mm 4 m/s 743 mmHg 74%
17:00 +14°C° 0 mm 4 m/s 743 mmHg 79%
18:00 +14°C° 0 mm 4 m/s 743 mmHg 83%
19:00 +13°C° 0 mm 4 m/s 743 mmHg 88%
20:00 +12°C° 0 mm 4 m/s 743 mmHg 89%
21:00 +12°C° 0 mm 5 m/s 743 mmHg 91%
22:00 +12°C° 0 mm 5 m/s 743 mmHg 92%
23:00 +12°C° 0 mm 5 m/s 742 mmHg 92%

Poimâine, 3 Octombrie, Sâmbătă

Timp Temperatura Precipitaţii Vânt Presiune Umiditate
00:00 +11°C° 0 mm 6 m/s 742 mmHg 93%
01:00 +11°C° 0 mm 6 m/s 741 mmHg 93%
02:00 +11°C° 0 mm 6 m/s 741 mmHg 90%
03:00 +12°C° 0 mm 7 m/s 740 mmHg 87%
04:00 +14°C° 0 mm 7 m/s 740 mmHg 85%
05:00 +14°C° 0 mm 7 m/s 740 mmHg 84%
06:00 +14°C° 0 mm 7 m/s 739 mmHg 84%
07:00 +14°C° 0 mm 7 m/s 739 mmHg 84%
08:00 +16°C° 0 mm 8 m/s 739 mmHg 77%
09:00 +17°C° 0 mm 8 m/s 738 mmHg 69%
10:00 +20°C° 0 mm 8 m/s 738 mmHg 62%
11:00 +21°C° 0 mm 8 m/s 738 mmHg 57%
12:00 +23°C° 0 mm 8 m/s 738 mmHg 53%
13:00 +24°C° 0 mm 8 m/s 738 mmHg 48%
14:00 +24°C° 0 mm 7 m/s 737 mmHg 51%
15:00 +23°C° 0 mm 6 m/s 737 mmHg 54%
16:00 +23°C° 0 mm 5 m/s 737 mmHg 57%
17:00 +22°C° 0 mm 6 m/s 737 mmHg 59%
18:00 +22°C° 0 mm 7 m/s 737 mmHg 60%
19:00 +21°C° 0 mm 8 m/s 737 mmHg 62%
20:00 +21°C° 0 mm 8 m/s 737 mmHg 62%
21:00 +20°C° 0 mm 7 m/s 737 mmHg 62%
22:00 +20°C° 0 mm 7 m/s 737 mmHg 62%
23:00 +20°C° 0 mm 7 m/s 737 mmHg 63%

4 Octombrie, Duminică

Timp Temperatura Precipitaţii Vânt Presiune Umiditate
00:00 +20°C° 0 mm 7 m/s 736 mmHg 63%
01:00 +20°C° 0 mm 7 m/s 736 mmHg 63%
02:00 +20°C° 0 mm 7 m/s 736 mmHg 63%
03:00 +20°C° 0 mm 7 m/s 737 mmHg 64%
04:00 +20°C° 0 mm 7 m/s 737 mmHg 64%
05:00 +19°C° 0 mm 5 m/s 737 mmHg 69%
06:00 +18°C° 0 mm 4 m/s 738 mmHg 74%
07:00 +17°C° 0 mm 2 m/s 738 mmHg 79%
08:00 +18°C° 0.1 mm 3 m/s 739 mmHg 74%
09:00 +19°C° 0.1 mm 4 m/s 740 mmHg 70%
10:00 +19°C° 0.1 mm 5 m/s 740 mmHg 65%
11:00 +20°C° 0 mm 5 m/s 741 mmHg 64%
12:00 +20°C° 0 mm 5 m/s 741 mmHg 63%
13:00 +20°C° 0 mm 4 m/s 742 mmHg 62%
14:00 +20°C° 0 mm 4 m/s 742 mmHg 63%
15:00 +20°C° 0 mm 3 m/s 743 mmHg 63%
16:00 +20°C° 0 mm 2 m/s 743 mmHg 63%
17:00 +19°C° 0 mm 2 m/s 743 mmHg 67%
18:00 +19°C° 0 mm 1 m/s 744 mmHg 72%
19:00 +18°C° 0 mm 1 m/s 744 mmHg 76%
20:00 +16°C° 0 mm 2 m/s 744 mmHg 77%
21:00 +16°C° 0 mm 2 m/s 744 mmHg 78%
22:00 +14°C° 0 mm 3 m/s 744 mmHg 79%
23:00 +14°C° 0 mm 3 m/s 744 mmHg 78%

5 Octombrie, Luni

Timp Temperatura Precipitaţii Vânt Presiune Umiditate
00:00 +14°C° 0 mm 3 m/s 744 mmHg 76%
01:00 +14°C° 0 mm 4 m/s 744 mmHg 75%
02:00 +14°C° 0 mm 4 m/s 743 mmHg 75%
03:00 +13°C° 0 mm 4 m/s 743 mmHg 75%
04:00 +13°C° 0 mm 4 m/s 743 mmHg 75%
05:00 +14°C° 0 mm 4 m/s 743 mmHg 75%
06:00 +14°C° 0 mm 5 m/s 742 mmHg 75%
07:00 +14°C° 0 mm 5 m/s 742 mmHg 75%
08:00 +15°C° 0.2 mm 5 m/s 742 mmHg 74%
09:00 +16°C° 0.2 mm 5 m/s 742 mmHg 73%
10:00 +17°C° 0.2 mm 5 m/s 741 mmHg 73%
11:00 +19°C° 0 mm 6 m/s 741 mmHg 65%
12:00 +21°C° 0 mm 7 m/s 741 mmHg 57%
13:00 +22°C° 0 mm 7 m/s 741 mmHg 49%
14:00 +21°C° 0 mm 7 m/s 742 mmHg 52%
15:00 +21°C° 0 mm 6 m/s 742 mmHg 54%
16:00 +20°C° 0 mm 5 m/s 742 mmHg 57%
17:00 +19°C° 0.1 mm 4 m/s 742 mmHg 64%
18:00 +17°C° 0.1 mm 4 m/s 743 mmHg 71%
19:00 +15°C° 0.1 mm 4 m/s 743 mmHg 77%
20:00 +14°C° 0 mm 5 m/s 744 mmHg 78%
21:00 +13°C° 0 mm 5 m/s 744 mmHg 80%
22:00 +13°C° 0 mm 6 m/s 745 mmHg 81%
23:00 +12°C° 0 mm 5 m/s 745 mmHg 81%

6 Octombrie, Marţi

Timp Temperatura Precipitaţii Vânt Presiune Umiditate
00:00 +11°C° 0 mm 4 m/s 746 mmHg 82%
01:00 +11°C° 0 mm 3 m/s 746 mmHg 82%
02:00 +10°C° 0 mm 3 m/s 746 mmHg 84%
03:00 +10°C° 0 mm 3 m/s 747 mmHg 86%
04:00 +10°C° 0 mm 3 m/s 747 mmHg 88%
05:00 +10°C° 0 mm 3 m/s 747 mmHg 85%
06:00 +10°C° 0 mm 3 m/s 747 mmHg 83%
07:00 +11°C° 0 mm 3 m/s 747 mmHg 80%
08:00 +12°C° 0 mm 3 m/s 747 mmHg 73%
09:00 +14°C° 0 mm 3 m/s 747 mmHg 66%
10:00 +17°C° 0 mm 4 m/s 747 mmHg 59%
11:00 +18°C° 0 mm 3 m/s 747 mmHg 55%
12:00 +18°C° 0 mm 3 m/s 747 mmHg 51%
13:00 +19°C° 0 mm 3 m/s 747 mmHg 47%
14:00 +19°C° 0 mm 2 m/s 747 mmHg 50%
15:00 +20°C° 0 mm 1 m/s 746 mmHg 52%
16:00 +19°C° 0 mm 1 m/s 746 mmHg 54%
17:00 +19°C° 0 mm 1 m/s 746 mmHg 56%
18:00 +16°C° 0 mm 0 m/s 746 mmHg 57%
19:00 +15°C° 0 mm 0 m/s 746 mmHg 58%
20:00 +16°C° 0 mm 1 m/s 746 mmHg 61%
21:00 +15°C° 0 mm 1 m/s 746 mmHg 63%
22:00 +15°C° 0 mm 2 m/s 746 mmHg 65%
23:00 +15°C° 0.3 mm 2 m/s 746 mmHg 71%
Arată mai mult

We Need Your Consent

Meteoprog and our Service Providers may store and access personal data such as cookies, device identifiers or other similar technologies on your device and process such data to personalise content and ads, as well as provide social media features and to analyse the traffic.

  • Store and/or access information on your device

    Cookies, device identifiers or other information can be stored or accessed on your device for the purposes indicated above.

  • Personalised ads and content, ad and content measurement, audience insights, and products development

    Ads and content can be personalised based on a profile. More data can be added to better personalise ads and content. Ad and content performance can be measured. Insights about the audience who saw the ads and content can be derived. Such data can be used to develop or improve user’s experience, systems and software.

By clicking ‘I Agree’ you will allow the use of indicated cookies, device identifiers, web beacons or other similar technologies. Your settings can be changed in the browser on your device.

For certain purposes, legitimate interests may be relied on, rather than consent. You can read more about this in our Privacy and Cookie Policy.